Flag for Australia Weather past 2 weeks in Perth, Western Australia, Australia

Now
50 °F

Mostly cloudy.


Feels Like: 48 °F
Forecast: 46 / 61 °F
Wind: 5 mph from Southwest

Location: Belmont Perth Airport

Current Time: Jul 23, 2014 at 12:21:56 AM

Latest Report: Jul 23, 2014 at 12:00 AM


Visibility: N/A

Pressure: 30.15 "Hg

Humidity: 94%

Dew point: 48 °F

Location of PerthLocation

Historic Weather in Perth — Graph

°F

Perth temperature yesterday

Maximum temperature yesterday: 59 °F (at 3:00 PM)
Minimum temperature yesterday: 48 °F (at 7:30 AM)
Average temperature yesterday: 53 °F

Past Weeks' High & Low Weather Summary

 TemperatureHumidityPressure
High68 °F (Jul 18, 2:30 PM)100% (Jul 8, 9:00 PM)30.42 "Hg (Jul 8, 9:00 PM)
Low37 °F (Jul 9, 5:30 AM)32% (Jul 13, 1:00 PM)29.77 "Hg (Jul 14, 5:00 AM)
Average53 °F77%30.12 "Hg
* Reported Jul 7 11:00 PM — Jul 22 11:00 PM, Perth, Weather by CustomWeather, © 2014

Note: Actual official high and low records may vary slightly from our data, if they occured in-between our weather recording intervals... More about our weather records

Advertising

Perth weather history for previous 24 hours

 ConditionsComfort  
Time TempWeatherWind HumidityBarometerVisibility
11:00 PM
Jul 22
50 °FPassing clouds.5 mph100%30.15 "HgN/A
10:30 PM52 °FPartly cloudy.6 mph94%30.15 "HgN/A
10:00 PM54 °FSprinkles. Partly cloudy.6 mph88%30.15 "HgN/A
9:30 PM54 °FPartly cloudy.7 mph88%30.15 "HgN/A
9:00 PM52 °FScattered showers. Partly cloudy.7 mph94%30.15 "HgN/A
8:30 PM54 °FScattered showers. Passing clouds.9 mph88%30.15 "HgN/A
8:00 PM54 °FSprinkles. Mostly cloudy.8 mph88%30.15 "Hg6 mi
7:30 PM52 °FPartly cloudy.7 mph94%30.12 "HgN/A
7:00 PM54 °FScattered showers. Partly cloudy.8 mph88%30.12 "HgN/A
6:30 PM54 °FScattered showers. Partly cloudy.7 mph94%30.12 "HgN/A
6:00 PM54 °FScattered showers. Mostly cloudy.7 mph94%30.09 "HgN/A
5:53 PM54 °FSprinkles. Overcast.9 mph88%30.09 "Hg3 mi
5:30 PM52 °FSprinkles. Partly cloudy.13 mph94%30.09 "Hg2 mi
5:00 PM54 °FSprinkles. Mostly cloudy.9 mph94%30.09 "Hg2 mi
4:00 PM55 °FScattered showers. Scattered clouds.15 mph82%30.07 "HgN/A
3:30 PM54 °FScattered showers. Broken clouds.13 mph94%30.07 "HgN/A
3:00 PM59 °FScattered clouds.7 mph68%30.04 "HgN/A
2:30 PM57 °FScattered clouds.8 mph72%30.04 "HgN/A
2:00 PM55 °FScattered showers. Broken clouds.10 mph82%30.04 "HgN/A
1:52 PM57 °FSprinkles. Broken clouds.10 mph77%30.04 "Hg4 mi
1:30 PM55 °FSprinkles. Broken clouds.8 mph82%30.04 "HgN/A
1:00 PM55 °FSprinkles. Partly sunny.8 mph77%30.04 "HgN/A
12:30 PM57 °FPartly sunny.9 mph72%30.04 "HgN/A
12:00 PM55 °FPartly sunny.7 mph77%30.04 "HgN/A
11:30 AM55 °FSprinkles. Broken clouds.9 mph77%30.07 "HgN/A
11:00 AM55 °FScattered showers. Partly sunny.7 mph72%30.07 "HgN/A
10:30 AM55 °FPassing clouds.7 mph72%30.07 "HgN/A
10:00 AM54 °FSprinkles. Scattered clouds.6 mph77%30.07 "HgN/A
9:30 AM54 °FSprinkles. Broken clouds.6 mph77%30.07 "HgN/A
9:00 AM52 °FPassing clouds.5 mph88%30.04 "HgN/A
8:30 AM48 °FPassing clouds.No wind100%30.04 "HgN/A
8:00 AM50 °FSprinkles. Partly sunny.5 mph94%30.01 "HgN/A
7:30 AM48 °FScattered showers. Partly sunny.5 mph94%30.01 "HgN/A
7:00 AM50 °FSprinkles. Partly sunny.7 mph94%29.98 "HgN/A
6:30 AM50 °FSprinkles. Broken clouds.5 mph94%29.98 "Hg4 mi
6:00 AM50 °FSprinkles. Partly cloudy.3 mph94%29.98 "Hg6 mi
5:00 AM50 °FSprinkles. Partly cloudy.6 mph100%29.95 "Hg6 mi
4:00 AM50 °FSprinkles. Mostly cloudy.5 mph100%29.92 "HgN/A
3:30 AM50 °FSprinkles. Partly cloudy.5 mph100%29.92 "HgN/A
3:00 AM50 °FPartly cloudy.7 mph100%29.92 "HgN/A
2:30 AM50 °FSprinkles. Mostly cloudy.6 mph100%29.89 "Hg6 mi
2:00 AM50 °FPassing clouds.3 mph100%29.89 "HgN/A
1:30 AM52 °FLight rain. Mostly cloudy.6 mph94%29.92 "Hg5 mi
1:00 AM52 °FLight rain. Mostly cloudy.6 mph100%29.89 "HgN/A
12:30 AM52 °FMostly cloudy.6 mph100%29.89 "HgN/A
12:00 AM52 °FScattered showers. Overcast.8 mph100%29.89 "HgN/A
Weather by CustomWeather, © 2014

See weather overviewHow to use our weather pages